リニア彗星

C/2005 Q1 ( LINEAR )

English version
Home page
Updated on April 12, 2008

---------------------------------------------------------------------

・ プロフィール

発見日 2005年8月27日
発見光度 18.9等
発見者 Lincoln Laboratory Near-Earth Asteroid Research project

・ 軌道要素

The following orbital elements are taken from MPC 61702:

Epoch 2005 Aug. 18.0 TT = JDT 2453600.5
T 2005 Aug. 25.5219 TT                                  MPC
q   6.408405             (2000.0)            P               Q
z  -0.000699       Peri.   44.6910      +0.2122991      +0.1582194
 +/-0.000002       Node    87.7275      +0.3750529      -0.9244241
e   1.004479       Incl.  105.1883      +0.9023660      +0.3469968
From 152 observations 2005 Aug. 27-2007 Sept. 12, mean residual 0".6.

・ 光度変化

        m1 = 6.0 + 5 logΔ + 10.0 log r

---------------------------------------------------------------------

軌道要素はMPCのEphemerides and Orbital Elementsに掲載されたものです。
光度グラフはComet for Windowsで作成したものです。

---------------------------------------------------------------------

Copyright(C) Seiichi Yoshida (comet@aerith.net). All rights reserved.